Flag for U.S.A. Weather past 2 weeks in Youngstown, Ohio, U.S.A.

45 °F

Passing clouds.

Feels Like: 40 °F
Forecast: 41 / 59 °F
Wind: 10 mph from Southeast

Location: Youngstown-Warren Regional Airport

Current Time: Nov 25, 2015 at 11:21:05 PM

Latest Report: Nov 25, 2015 at 9:51 PM

Visibility: 10 mi

Pressure: 30.49 "Hg

Humidity: 51%

Dew point: 28 °F

Location of YoungstownLocation

Historic Weather in Youngstown — Graph


Youngstown temperature yesterday

Maximum temperature yesterday: 45 °F (at 1:51 PM)
Minimum temperature yesterday: 30 °F (at 7:51 AM)
Average temperature yesterday: 35 °F

Past Weeks' High & Low Weather Summary

High64 °F (Nov 18, 2:51 PM)97% (Nov 10, 10:51 PM)30.56 "Hg (Nov 10, 10:51 PM)
Low24 °F (Nov 23, 1:51 AM)16% (Nov 20, 12:51 PM)29.48 "Hg (Nov 12, 11:51 AM)
Average44 °F61%30.12 "Hg
* Reported Nov 10 8:51 PM — Nov 25 8:51 PM, Youngstown, Weather by CustomWeather, © 2015

Note: Actual official high and low records may vary slightly from our data, if they occured in-between our weather recording intervals... More about our weather records


Youngstown weather history for previous 24 hours

Time TempWeatherWind HumidityBarometerVisibility
8:51 PM
Wed, Nov 25
46 °FPassing clouds.10 mph48%30.50 "Hg10 mi
7:51 PM47 °FPassing clouds.9 mph48%30.50 "Hg10 mi
6:51 PM48 °FPassing clouds.7 mph46%30.49 "Hg10 mi
5:51 PM51 °FPassing clouds.10 mph41%30.46 "Hg10 mi
4:51 PM52 °FPartly sunny.12 mph41%30.44 "Hg10 mi
3:51 PM54 °FScattered clouds.13 mph40%30.48 "Hg10 mi
2:51 PM56 °FPassing clouds.9 mph37%30.50 "Hg10 mi
1:51 PM55 °FPassing clouds.9 mph40%30.50 "Hg10 mi
12:51 PM53 °FPassing clouds.10 mph43%30.52 "Hg10 mi
11:51 AM50 °FPassing clouds.7 mph46%30.54 "Hg10 mi
10:51 AM46 °FPassing clouds.8 mph51%30.56 "Hg10 mi
9:51 AM40 °FPassing clouds.8 mph63%30.56 "Hg10 mi
8:51 AM36 °FPassing clouds.12 mph67%30.55 "Hg10 mi
7:51 AM31 °FPassing clouds.9 mph76%30.54 "Hg10 mi
6:51 AM31 °FPassing clouds.9 mph73%30.53 "Hg10 mi
5:51 AM32 °FPassing clouds.10 mph73%30.51 "Hg10 mi
4:51 AM31 °FPassing clouds.9 mph73%30.50 "Hg10 mi
3:51 AM30 °FPartly cloudy.8 mph72%30.50 "Hg10 mi
2:51 AM31 °FPassing clouds.9 mph73%30.49 "Hg10 mi
1:51 AM32 °FMostly cloudy.8 mph73%30.47 "Hg10 mi
12:51 AM30 °FPartly cloudy.7 mph75%30.48 "Hg10 mi
11:51 PM
Tue, Nov 24
31 °FPassing clouds.7 mph73%30.47 "Hg10 mi
Weather by CustomWeather, © 2015

See weather overviewHow to use our weather pages